SCP
0 0 0 0 0 0 0 0 0 0 0 0 0 0 0 -0 -0 -0 0 0 0 0 0 0 0 0 0 0 0 0 0 0 0 0 0 0 0 0 0 0 0 0 0 0 0 0 0 0 0 0 0 0 0 0
0 0 0 0 0 0 0 0 0 0 0 0 -0 -0 -0 -0 -0 -0 0 0 0 0 0 0 0 0 0 0 0 0 0 0 0 0 0 0 0 0 0 0 0 0 0 0 0 0 0 0 0 0 0 0 0 0
0 0 0 0 0 0 0 0 0 0 0 0 0 0 -0 -0 -0 -0 -0 -0 0 0 0 0 0 0 -0 -0 0 0 0 0 0 0 -0 -0 0 0 0 0 0 0 0 0 0 0 0 -0 -0 0 -0 -0 -0 0
0 0 0 0 0 0 0 0 0 0 0 -0 -0 -0 -0 -0 -0 -0 -0 -0 0 0 0 0 0 0 0 0 0 0 0 0 0 0 0 0 0 0 0 0 0 0 0 -0 -0 -0 -0 -0 -0 -0 -0 -0 -0 -0
0 0 0 0 0 0 0 0 0 0 0 -0 -0 -0 0 -0 -0 -0 0 -0 0 0 0 0 0 0 0 0 0 0 0 0 0 0 0 0 0 0 0 0 0 0 0 -0 -0 0 -0 -0 -0 -0 -0 -0 -0 -0
0 0 0 0 0 0 0 0 0 0 -0 -0 -0 -0 0 0 0 0 0 -0 -0 -0 0 0 0 0 0 0 0 0 0 0 0 -0 0 0 0 0 0 0 0 0 0 0 0 0 0 0 0 0 0 -0 0 0
0 0 0 0 0 0 0 0 0 0 -0 -0 -0 -0 -0 0 0 0 0 0 -0 0 0 0 0 0 0 0 0 0 0 0 0 0 0 0 0 0 0 0 0 0 0 0 0 0 -0 0 0 0 0 0 0 -0
0 0 0 0 0 0 0 0 0 -0 -0 -0 -0 -0 -0 0 0 0 0 0 0 0 0 0 0 0 0 0 0 0 0 0 0 0 0 0 0 0 0 0 0 0 0 0 0 0 -0 0 -0 0 0 0 -0 -0
0 0 0 0 0 0 0 0 0 0 -0 -0 -0 -0 0 0 0 0 0 0 0 0 0 0 0 0 0 0 0 0 0 0 0 0 0 0 0 0 0 0 0 0 0 0 0 0 0 0 0 0 -0 -0 -0 0
0 0 0 0 0 0 0 0 0 0 -0 0 0 0 0 0 0 0 0 -0 0 0 0 -0 0 0 0 0 0 0 0 0 0 0 0 0 0 0 0 0 0 0 0 0 0 0 0 0 0 0 0 0 0 0
0 0 0 0 0 0 0 0 0 0 0 0 0 0 0 -0 0 0 0 0 0 0 0 0 0 0 0 0 0 0 0 0 0 0 0 0 0 0 0 0 0 0 0 0 0 0 0 0 0 0 0 0 0 0
0 0 0 0 0 0 0 0 0 0 0 0 0 0 0 0 0 0 0 0 0 0 0 0 0 0 0 0 0 0 0 0 0 0 0 0 0 0 0 0 0 0 0 0 0 0 0 0 0 0 0 0 0 0
0 0 0 0 0 0 0 0 0 0 0 0 0 0 0 0 0 0 0 0 0 0 0 0 0 0 0 0 0 0 0 0 0 0 0 0 0 0 0 -0 -0 -0 -0 -0 -0 -0 -0 -0 0 0 0 0 0 0
0 0 0 0 0 0 0 0 0 0 0 0 0 0 0 0 0 0 0 0 0 0 0 0 0 0 0 0 0 0 0 0 0 0 0 0 0 0 -0 -0 -0 -0 -0 -0 0 0 0 0 0 0 0 0 0 0
0 0 0 0 0 0 0 0 0 0 0 0 0 0 0 0 0 0 0 0 0 0 0 0 0 0 0 0 0 0 0 0 0 0 0 0 -0 -0 -0 -0 -0 -0 0 0 0 0 0 0 0 0 0 0 0 0
0 0 0 0 0 0 0 0 0 0 0 0 0 0 0 0 0 0 0 0 0 0 0 0 0 0 0 0 0 0 0 0 0 0 -0 -0 -0 -0 -0 -0 0 0 0 0 0 0 0 0 0 0 0 0 0 0
0 0 0 0 0 0 0 0 0 0 0 0 0 0 0 0 0 0 0 0 0 0 0 0 0 0 0 0 0 0 0 0 0 -0 -0 -0 -0 -0 -0 -0 0 0 0 0 0 0 0 0 0 0 0 0 0 0
0 0 0 0 0 0 0 0 0 0 0 0 0 0 0 0 0 0 0 0 0 0 0 0 0 0 0 0 0 0 0 0 -0 -0 -0 -0 -0 -0 0 0 0 0 0 0 0 0 0 0 0 0 0 0 0 0
0 0 0 0 0 0 0 0 0 0 0 0 0 0 0 0 0 0 0 0 0 0 0 0 0 0 0 0 0 0 0 0 0 0 0 0 0 0 0 0 0 0 0 0 0 0 0 0 0 0 0 0 0 0
0 0 0 0 0 0 0 0 0 0 0 0 0 0 0 0 0 0 0 0 0 0 0 0 0 0 0 0 0 0 0 0 0 0 0 0 0 0 0 0 0 0 0 0 0 0 0 0 0 0 0 0 0 0
0 0 0 0 0 0 0 0 0 0 0 0 0 0 0 0 0 0 0 0 0 0 0 0 0 0 0 0 0 0 0 0 0 0 0 0 0 0 0 0 0 0 0 0 0 0 0 0 0 0 0 0 0 0
0 0 0 0 0 0 0 0 0 0 0 0 0 0 0 0 0 0 0 0 0 0 0 0 0 0 0 0 0 0 0 0 0 0 0 0 0 0 0 0 0 0 0 0 0 0 0 0 0 0 0 0 0 0
0 0 0 0 0 0 0 0 0 0 0 0 0 0 0 0 0 0 0 0 0 0 0 0 0 0 0 0 0 0 0 0 0 0 0 0 0 0 0 0 0 0 0 0 0 0 0 0 0 0 0 0 0 0
0 0 0 0 0 0 0 0 0 0 0 0 0 0 0 0 0 0 0 0 0 0 0 0 0 0 0 0 0 0 0 0 0 0 0 0 0 0 0 0 0 0 0 0 0 0 0 0 0 0 0 0 0 0
0 0 0 0 0 0 0 0 0 0 0 0 0 0 0 0 0 0 0 0 0 -0 0 0 0 0 0 0 0 0 0 0 0 0 0 0 0 0 0 0 0 0 0 0 0 0 0 0 0 0 0 0 0 0
0 0 0 0 0 0 0 0 0 0 0 0 0 0 0 0 0 0 0 0 -0 -0 0 0 0 0 0 0 0 0 0 0 0 0 0 0 0 0 0 0 0 0 0 0 0 0 0 0 0 0 0 0 0 0
0 0 0 0 0 0 0 0 0 0 0 0 0 0 0 0 0 0 0 0 0 0 0 0 0 0 0 0 0 0 0 0 0 0 0 0 0 0 0 0 0 0 0 0 0 0 0 0 0 0 0 0 0 0
0 0 0 0 0 0 0 0 0 0 0 0 0 0 0 0 0 0 0 0 0 0 0 0 0 0 0 0 0 0 0 0 0 0 0 0 0 0 0 0 0 0 0 0 0 0 0 0 0 0 0 0 0 0
0 0 0 0 0 0 0 0 0 0 0 0 0 0 0 0 0 0 0 0 0 0 0 0 0 0 0 0 0 0 0 0 0 0 0 0 0 0 0 0 0 0 0 0 0 0 0 0 0 0 0 0 0 0
0 0 0 0 0 0 0 0 0 0 0 0 0 0 0 0 0 0 0 0 0 0 0 0 -0 0 0 0 -0 -0 0 0 0 0 0 0 0 0 0 0 0 0 0 0 0 0 0 0 0 0 0 0 0 0
0 0 0 0 0 0 0 0 0 0 0 0 0 0 0 0 0 0 0 0 0 0 0 -0 -0 -0 -0 0 0 0 0 0 0 0 0 0 0 0 0 0 0 0 0 0 0 0 0 0 -0 -0 -0 -0 -0 -0
0 0 0 0 0 0 0 0 0 0 0 0 0 0 0 0 0 0 0 0 0 0 0 0 0 0 -0 -0 0 0 0 0 0 0 0 0 0 0 0 0 0 0 0 0 0 0 0 0 0 0 0 -0 -0 -0
0 0 0 0 0 0 0 0 0 0 0 0 0 0 0 0 0 0 0 0 0 0 0 0 0 0 0 0 0 0 0 0 0 0 0 0 0 0 0 0 0 0 -0 0 0 0 0 0 0 0 0 0 0 0
Wind_Speed_500mb
52 54 55 58 58 59 56 56 59 61 61 63 65 64 66 67 67 69 68 57 37 36 60 40 46 36 21 17 9 7 8 7 6 4 3 4 3 8 0 15 17 14 9 11 17 23 30 23 8 6 5 8 10 19
55 55 56 57 57 57 57 57 60 62 62 67 67 68 66 67 67 68 76 75 67 60 45 44 63 64 57 45 32 20 18 9 5 1 4 2 8 3 4 7 9 10 2 3 5 5 7 19 27 21 11 6 3 11
56 55 56 55 58 56 59 60 62 62 65 67 70 64 62 62 62 61 74 86 45 42 21 28 49 52 46 51 42 26 35 28 23 31 6 7 8 2 5 5 3 3 5 2 7 8 10 25 22 13 8 8 12 15
57 56 56 58 59 58 59 59 62 61 66 70 68 65 57 58 55 52 49 49 22 8 3 7 17 34 27 34 48 60 67 35 35 32 18 9 5 14 7 7 7 8 5 4 6 5 15 6 3 4 5 12 17 22
56 55 55 57 59 59 59 59 63 61 64 68 67 64 61 55 47 44 34 28 41 15 3 4 4 8 17 17 24 40 52 55 43 14 9 13 6 4 4 3 5 6 4 5 4 10 10 12 4 13 19 21 24 30
57 56 55 56 58 59 58 59 61 60 63 67 70 68 56 45 36 32 7 12 47 34 7 4 7 14 20 16 25 26 26 31 25 10 5 6 10 5 6 5 5 10 9 5 2 14 16 26 16 14 21 26 33 37
57 57 56 57 58 58 57 60 61 59 65 70 64 52 37 25 22 15 8 39 47 24 5 7 6 13 34 12 6 10 18 19 16 6 5 5 6 9 3 3 6 12 15 13 16 23 3 2 12 38 34 33 36 37
56 58 56 57 56 55 57 60 56 62 64 59 49 38 22 15 15 14 32 39 24 7 6 4 7 7 35 12 9 11 5 4 10 7 3 2 1 3 4 6 7 10 12 10 12 20 23 34 31 33 38 40 44 41
54 58 56 57 56 54 57 56 59 61 61 50 40 27 9 10 15 25 21 20 15 12 8 7 4 7 32 9 9 9 8 5 9 1 4 4 3 7 3 2 9 17 14 25 34 35 29 30 41 40 46 49 51 54
52 54 57 56 56 54 55 51 59 61 49 45 31 10 5 27 25 15 9 6 11 16 13 4 15 5 20 13 8 14 5 2 2 7 10 4 5 3 4 12 16 19 22 29 39 37 50 57 58 62 65 66 69 72
52 53 55 56 56 54 46 52 53 54 42 32 19 10 25 18 8 6 9 14 16 9 16 13 11 5 16 5 5 8 4 3 3 8 4 5 7 5 11 18 27 29 31 33 38 46 50 56 66 72 76 72 74 77
53 59 57 56 56 52 40 48 48 47 37 31 22 24 15 12 7 12 2 7 9 5 11 6 11 10 12 10 4 7 3 5 11 6 6 7 4 16 18 37 45 44 45 48 46 53 56 59 62 67 74 78 79 80
49 53 60 58 56 51 47 48 43 39 30 10 5 5 9 10 11 9 5 8 5 3 6 13 6 12 8 6 5 5 3 9 7 5 8 7 7 9 32 47 55 53 51 55 58 56 57 62 61 65 73 74 77 80
49 52 54 62 50 68 45 42 35 29 10 4 2 7 6 8 6 8 8 7 2 2 9 14 8 7 8 8 1 4 7 5 6 4 11 5 14 34 48 50 54 63 62 64 64 66 65 66 68 67 68 68 69 73
50 60 61 59 64 70 48 39 31 18 7 7 5 6 8 4 4 7 10 5 7 5 11 5 4 4 5 4 2 4 10 8 11 9 5 9 38 48 51 53 58 63 63 65 68 68 67 68 70 71 65 65 67 68
52 63 57 53 69 72 56 37 27 10 7 9 10 7 7 3 4 11 18 12 10 7 2 1 3 6 7 5 3 12 8 12 8 6 20 46 48 51 53 55 59 59 61 65 64 60 60 61 66 69 68 65 62 60
56 58 57 62 65 70 46 29 11 13 13 11 8 18 20 6 7 13 18 14 13 5 4 7 3 15 2 4 7 9 10 6 10 34 47 47 52 58 57 56 60 62 62 60 58 59 60 59 58 61 66 63 60 59
58 57 58 61 63 57 34 11 11 11 12 12 9 16 22 12 14 16 21 20 12 9 10 7 5 4 9 10 8 7 20 23 43 51 56 59 63 54 55 59 62 61 58 56 55 56 55 55 57 58 58 58 58 58
58 59 56 56 57 29 11 8 11 9 12 9 11 19 13 9 20 14 22 23 19 12 4 4 3 8 8 12 12 17 26 35 49 60 63 62 49 54 58 59 58 55 53 54 54 53 51 49 53 54 54 56 58 60
53 55 56 49 44 12 10 9 11 9 9 14 14 19 8 6 16 23 23 23 22 12 6 6 11 13 19 17 15 28 33 38 45 59 66 56 61 59 59 54 52 52 53 51 49 49 53 57 53 51 53 55 59 62
53 55 45 43 33 23 14 11 12 7 9 9 15 15 9 12 10 19 18 26 18 15 8 36 48 37 27 27 30 35 36 38 40 43 53 64 60 56 54 49 50 49 49 49 49 53 54 56 56 55 56 56 53 53
47 47 43 37 17 14 12 15 4 9 8 8 14 11 8 7 11 12 16 20 19 24 28 23 27 18 16 22 26 33 38 42 42 42 40 43 52 53 50 47 47 48 46 44 46 54 58 54 51 48 50 53 50 48
45 39 21 19 15 14 6 13 9 8 3 6 7 4 4 6 10 13 9 19 22 28 37 37 33 31 29 28 32 33 33 36 36 35 36 38 41 39 40 40 37 38 42 42 45 51 52 47 48 50 46 44 42 41
28 13 12 13 21 9 10 10 9 10 8 6 5 6 5 10 11 4 7 13 26 23 28 22 20 21 25 29 28 27 30 34 31 27 27 36 38 35 33 33 32 30 32 38 43 49 50 51 51 47 44 42 42 42
9 13 11 9 11 7 9 6 6 6 7 8 6 6 5 10 5 6 7 8 27 33 30 28 24 21 22 21 22 20 26 28 28 27 20 28 31 31 28 29 30 30 30 37 44 47 51 52 49 45 43 42 43 41
8 10 10 7 6 8 9 9 11 12 6 8 8 6 6 4 6 12 7 14 27 33 33 30 24 18 11 12 14 14 19 21 23 23 22 24 27 30 32 34 36 34 31 32 37 43 46 48 47 46 48 50 46 42
8 6 4 6 3 3 1 0 2 4 10 11 9 10 8 8 12 8 12 20 25 30 26 21 19 8 10 15 13 14 16 17 18 20 21 19 20 22 24 28 31 31 30 26 29 33 38 41 40 42 45 46 48 47
7 5 4 3 8 11 5 5 8 11 7 13 17 11 11 14 8 3 7 9 30 28 29 27 26 24 26 29 15 11 13 13 16 17 17 16 14 17 19 23 26 26 27 26 23 25 29 27 29 32 35 39 41 43
8 15 11 8 9 11 12 9 5 7 9 21 6 8 8 11 5 2 2 7 14 22 31 32 31 35 43 34 20 13 11 9 8 10 14 16 17 14 18 19 19 19 18 19 22 23 23 22 22 24 27 30 32 33
6 15 6 8 6 6 3 7 8 10 14 21 16 20 26 34 41 55 62 59 58 58 55 54 56 57 42 27 18 14 10 6 5 4 4 7 12 13 12 12 13 13 15 17 19 22 24 23 22 22 23 26 29 32
19 11 8 10 8 8 14 24 32 33 27 18 29 34 34 31 23 14 27 35 27 17 11 24 33 34 27 23 17 13 12 8 5 2 2 4 6 8 9 9 9 10 11 12 15 19 21 21 22 22 23 27 29 31
11 6 7 7 7 16 25 14 13 8 7 6 7 9 12 11 11 20 37 37 23 16 9 7 15 16 23 22 15 9 8 7 5 4 3 3 5 6 7 8 8 7 7 7 10 13 15 17 17 19 20 22 24 26
9 9 10 11 11 8 16 24 6 7 7 7 5 10 8 6 10 20 33 43 33 11 7 4 12 15 16 15 9 5 5 6 7 5 4 3 5 5 6 7 7 7 6 5 6 8 10 12 11 12 15 16 17 19
Wind_Direction_500mb
341 339 337 338 337 332 329 328 327 328 327 327 326 325 325 326 327 326 312 312 283 271 247 234 237 229 200 209 150 238 351 286 360 157 223 284 204 249 198 258 253 263 291 232 232 227 240 346 18 38 45 92 28 358
340 338 337 339 339 337 333 330 328 329 330 328 325 322 322 322 324 324 316 315 290 243 241 234 249 240 246 253 250 228 220 197 273 65 219 101 332 305 204 275 353 257 309 4 45 324 55 41 102 100 80 111 57 348
339 336 336 338 337 335 333 330 331 332 334 327 325 325 320 320 324 328 324 327 310 202 196 231 240 244 239 245 248 242 250 239 238 254 250 233 243 184 216 249 243 283 127 112 352 119 148 135 122 100 7 329 319 321
338 335 336 337 336 335 334 330 328 333 332 332 333 333 326 324 326 328 340 352 30 71 121 279 250 245 264 249 245 238 247 251 265 278 268 257 250 209 201 221 190 191 136 217 218 145 99 91 106 343 325 310 302 312
337 336 334 335 335 334 334 332 332 332 333 335 336 332 328 329 328 324 312 351 16 283 199 325 275 294 262 268 244 244 250 258 267 249 223 242 219 229 312 34 256 29 184 175 230 26 344 95 320 309 321 322 328 327
336 336 334 334 335 334 334 332 331 328 330 332 333 332 332 336 334 346 320 302 354 7 19 343 310 341 323 294 267 268 252 254 243 290 306 201 164 231 188 202 99 90 74 27 15 320 299 285 271 296 319 316 315 318
334 335 335 333 333 334 334 332 330 328 329 330 335 336 341 352 359 32 39 318 319 320 318 344 347 6 358 2 282 250 242 249 247 247 253 218 216 196 88 207 52 2 346 320 320 334 180 180 269 302 305 308 308 309
329 333 333 331 331 333 334 329 331 331 328 335 338 333 334 345 350 331 338 353 0 98 25 50 308 358 7 339 327 339 296 246 222 253 268 186 347 75 235 55 19 345 334 196 331 324 291 292 300 299 302 307 308 309
325 328 332 331 330 332 330 331 334 333 331 336 338 334 328 335 349 332 338 328 4 65 92 74 90 278 344 348 308 312 337 341 328 103 239 141 304 212 171 359 353 357 354 311 320 322 316 310 310 308 309 310 307 307
320 325 330 331 329 329 326 333 335 333 340 342 345 346 10 337 329 331 337 352 35 30 51 83 340 283 341 330 306 345 356 251 311 259 312 81 260 128 95 46 18 354 340 328 323 326 320 314 314 312 310 309 308 306
321 325 329 330 329 323 326 334 335 333 345 347 337 326 326 339 351 22 42 39 349 21 11 1 11 315 2 20 288 347 291 319 8 270 124 312 289 222 112 21 359 344 331 321 308 304 302 300 302 303 303 301 300 301
320 318 326 327 324 318 327 330 333 333 334 323 306 305 321 341 18 72 313 336 52 217 336 334 325 306 312 324 16 320 240 34 244 331 61 286 259 157 348 339 334 330 324 316 311 304 303 299 299 299 299 300 301 300
311 312 318 325 330 333 323 323 327 329 327 315 300 285 358 349 30 91 296 308 337 230 360 348 320 321 306 299 296 16 25 232 318 42 231 235 237 288 331 325 320 320 317 311 310 306 304 301 300 298 298 298 299 297
305 309 311 327 322 331 328 317 323 326 311 270 270 310 106 309 246 181 189 194 184 232 331 334 287 346 323 352 283 44 250 45 5 350 239 236 223 311 316 318 314 315 316 314 312 311 307 306 307 307 306 305 302 298
298 302 312 315 325 331 323 321 320 305 243 233 171 238 215 219 176 171 201 214 220 271 326 309 321 315 310 349 55 346 351 265 209 231 227 239 312 316 314 314 314 314 314 311 312 307 303 305 307 308 308 304 303 302
293 296 307 311 323 324 322 312 310 240 225 209 193 107 162 83 250 203 210 218 216 236 275 110 98 42 278 159 47 226 132 232 251 220 296 316 317 316 317 318 315 315 315 313 313 307 302 300 300 305 306 305 306 304
287 292 304 313 319 325 314 303 252 220 212 205 215 204 180 169 170 166 178 181 183 204 199 120 119 222 91 354 270 199 217 229 240 309 320 320 321 324 325 321 319 321 319 317 311 310 310 309 306 305 307 315 313 310
283 295 301 313 320 321 304 228 232 229 214 197 179 188 191 182 170 176 183 181 181 184 171 218 128 135 208 199 251 240 247 290 309 318 320 326 328 327 327 325 324 323 321 321 318 316 315 316 315 314 314 315 313 313
284 288 295 310 319 314 268 237 227 242 204 184 182 174 183 190 199 190 187 182 183 183 207 181 122 214 231 214 227 268 301 311 314 317 318 324 329 331 330 329 328 328 326 325 324 322 320 321 320 321 321 321 311 312
284 287 293 301 314 285 257 244 228 232 192 179 172 169 178 185 168 191 201 191 173 169 166 212 222 220 216 245 275 303 310 314 316 318 320 327 330 332 334 333 333 332 330 332 332 334 333 331 333 329 324 321 314 314
281 282 287 299 294 237 255 236 229 216 174 179 173 168 160 169 188 182 200 197 203 212 230 231 238 256 265 273 290 300 306 308 309 307 311 316 326 329 334 339 337 335 335 338 336 337 339 335 334 335 330 327 328 326
275 283 286 288 240 229 246 222 207 173 178 153 171 188 156 178 186 181 180 197 238 231 209 226 249 260 263 279 288 295 304 305 304 309 315 317 323 333 338 341 339 338 340 342 341 341 342 343 341 340 341 338 338 333
277 281 266 224 212 218 232 192 183 185 164 188 177 190 171 195 177 182 233 231 256 243 229 239 250 260 275 281 288 299 301 299 307 314 319 320 330 336 337 343 343 340 343 354 351 351 350 353 356 355 350 352 353 355
265 231 231 214 208 194 181 182 187 156 151 166 202 231 184 176 171 178 248 246 246 231 210 214 225 243 264 278 290 301 295 297 306 322 326 325 334 347 346 349 352 355 351 351 357 2 5 8 8 4 4 5 12 14
214 225 212 219 187 138 190 178 186 193 214 159 189 225 175 159 205 229 243 260 241 226 210 209 219 238 260 282 290 289 286 296 308 327 333 330 334 343 356 8 13 2 356 2 7 8 14 18 13 14 16 17 20 23
225 210 188 215 176 196 184 183 201 204 168 153 196 126 158 152 218 236 228 220 210 198 201 206 203 203 239 286 294 286 286 299 314 326 328 332 335 344 354 360 7 17 12 8 7 11 16 21 17 20 28 31 31 35
252 293 264 242 205 195 198 306 175 227 183 184 165 165 173 219 234 241 236 212 198 201 200 207 223 243 323 333 311 295 301 310 317 323 322 320 331 340 351 360 4 7 13 13 14 14 18 20 23 30 37 40 40 41
274 283 262 256 231 223 258 216 210 208 183 165 138 188 204 210 234 200 189 207 206 207 207 216 227 253 293 312 308 277 290 311 317 322 322 322 326 338 352 3 4 4 7 11 17 21 25 22 28 34 40 46 50 52
342 337 308 263 247 235 231 228 232 209 194 179 208 224 239 237 231 90 329 277 262 247 239 237 246 274 286 289 276 244 262 294 316 328 331 326 330 341 353 0 3 5 11 18 25 29 32 32 37 41 44 49 55 61
316 336 286 269 262 268 343 241 277 267 241 234 267 286 283 283 294 297 295 287 277 266 260 259 263 265 264 257 239 226 238 251 293 334 14 350 339 337 340 346 356 11 21 29 36 44 45 44 45 52 60 66 69 72
317 316 282 250 269 271 298 303 292 283 273 268 263 261 275 299 316 349 358 355 357 353 283 248 242 238 214 183 180 207 227 224 208 235 27 30 13 360 352 350 357 8 24 42 49 52 53 55 60 63 69 75 78 79
305 296 308 292 282 302 320 335 311 313 312 299 276 296 319 331 303 350 6 12 17 40 68 127 143 154 154 161 161 179 229 240 247 274 307 35 47 36 25 15 4 7 15 27 57 66 65 62 64 73 76 79 83 87
279 285 280 281 294 313 338 338 294 288 257 274 330 352 347 301 271 360 1 6 12 23 36 110 136 139 148 154 174 200 242 237 234 240 275 312 352 13 24 33 24 9 12 14 44 67 78 83 81 83 88 93 95 95
Wind_Speed_850mb
52 54 55 58 58 59 56 56 59 61 61 63 65 64 66 67 67 69 68 57 37 36 60 40 46 36 21 17 9 7 8 7 6 4 3 4 3 8 0 15 17 14 9 11 17 23 30 23 8 6 5 8 10 19
55 55 56 57 57 57 57 57 60 62 62 67 67 68 66 67 67 68 76 75 67 60 45 44 63 64 57 45 32 20 18 9 5 1 4 2 8 3 4 7 9 10 2 3 5 5 7 19 27 21 11 6 3 11
56 55 56 55 58 56 59 60 62 62 65 67 70 64 62 62 62 61 74 86 45 42 21 28 49 52 46 51 42 26 35 28 23 31 6 7 8 2 5 5 3 3 5 2 7 8 10 25 22 13 8 8 12 15
57 56 56 58 59 58 59 59 62 61 66 70 68 65 57 58 55 52 49 49 22 8 3 7 17 34 27 34 48 60 67 35 35 32 18 9 5 14 7 7 7 8 5 4 6 5 15 6 3 4 5 12 17 22
56 55 55 57 59 59 59 59 63 61 64 68 67 64 61 55 47 44 34 28 41 15 3 4 4 8 17 17 24 40 52 55 43 14 9 13 6 4 4 3 5 6 4 5 4 10 10 12 4 13 19 21 24 30
57 56 55 56 58 59 58 59 61 60 63 67 70 68 56 45 36 32 7 12 47 34 7 4 7 14 20 16 25 26 26 31 25 10 5 6 10 5 6 5 5 10 9 5 2 14 16 26 16 14 21 26 33 37
57 57 56 57 58 58 57 60 61 59 65 70 64 52 37 25 22 15 8 39 47 24 5 7 6 13 34 12 6 10 18 19 16 6 5 5 6 9 3 3 6 12 15 13 16 23 3 2 12 38 34 33 36 37
56 58 56 57 56 55 57 60 56 62 64 59 49 38 22 15 15 14 32 39 24 7 6 4 7 7 35 12 9 11 5 4 10 7 3 2 1 3 4 6 7 10 12 10 12 20 23 34 31 33 38 40 44 41
54 58 56 57 56 54 57 56 59 61 61 50 40 27 9 10 15 25 21 20 15 12 8 7 4 7 32 9 9 9 8 5 9 1 4 4 3 7 3 2 9 17 14 25 34 35 29 30 41 40 46 49 51 54
52 54 57 56 56 54 55 51 59 61 49 45 31 10 5 27 25 15 9 6 11 16 13 4 15 5 20 13 8 14 5 2 2 7 10 4 5 3 4 12 16 19 22 29 39 37 50 57 58 62 65 66 69 72
52 53 55 56 56 54 46 52 53 54 42 32 19 10 25 18 8 6 9 14 16 9 16 13 11 5 16 5 5 8 4 3 3 8 4 5 7 5 11 18 27 29 31 33 38 46 50 56 66 72 76 72 74 77
53 59 57 56 56 52 40 48 48 47 37 31 22 24 15 12 7 12 2 7 9 5 11 6 11 10 12 10 4 7 3 5 11 6 6 7 4 16 18 37 45 44 45 48 46 53 56 59 62 67 74 78 79 80
49 53 60 58 56 51 47 48 43 39 30 10 5 5 9 10 11 9 5 8 5 3 6 13 6 12 8 6 5 5 3 9 7 5 8 7 7 9 32 47 55 53 51 55 58 56 57 62 61 65 73 74 77 80
49 52 54 62 50 68 45 42 35 29 10 4 2 7 6 8 6 8 8 7 2 2 9 14 8 7 8 8 1 4 7 5 6 4 11 5 14 34 48 50 54 63 62 64 64 66 65 66 68 67 68 68 69 73
50 60 61 59 64 70 48 39 31 18 7 7 5 6 8 4 4 7 10 5 7 5 11 5 4 4 5 4 2 4 10 8 11 9 5 9 38 48 51 53 58 63 63 65 68 68 67 68 70 71 65 65 67 68
52 63 57 53 69 72 56 37 27 10 7 9 10 7 7 3 4 11 18 12 10 7 2 1 3 6 7 5 3 12 8 12 8 6 20 46 48 51 53 55 59 59 61 65 64 60 60 61 66 69 68 65 62 60
56 58 57 62 65 70 46 29 11 13 13 11 8 18 20 6 7 13 18 14 13 5 4 7 3 15 2 4 7 9 10 6 10 34 47 47 52 58 57 56 60 62 62 60 58 59 60 59 58 61 66 63 60 59
58 57 58 61 63 57 34 11 11 11 12 12 9 16 22 12 14 16 21 20 12 9 10 7 5 4 9 10 8 7 20 23 43 51 56 59 63 54 55 59 62 61 58 56 55 56 55 55 57 58 58 58 58 58
58 59 56 56 57 29 11 8 11 9 12 9 11 19 13 9 20 14 22 23 19 12 4 4 3 8 8 12 12 17 26 35 49 60 63 62 49 54 58 59 58 55 53 54 54 53 51 49 53 54 54 56 58 60
53 55 56 49 44 12 10 9 11 9 9 14 14 19 8 6 16 23 23 23 22 12 6 6 11 13 19 17 15 28 33 38 45 59 66 56 61 59 59 54 52 52 53 51 49 49 53 57 53 51 53 55 59 62
53 55 45 43 33 23 14 11 12 7 9 9 15 15 9 12 10 19 18 26 18 15 8 36 48 37 27 27 30 35 36 38 40 43 53 64 60 56 54 49 50 49 49 49 49 53 54 56 56 55 56 56 53 53
47 47 43 37 17 14 12 15 4 9 8 8 14 11 8 7 11 12 16 20 19 24 28 23 27 18 16 22 26 33 38 42 42 42 40 43 52 53 50 47 47 48 46 44 46 54 58 54 51 48 50 53 50 48
45 39 21 19 15 14 6 13 9 8 3 6 7 4 4 6 10 13 9 19 22 28 37 37 33 31 29 28 32 33 33 36 36 35 36 38 41 39 40 40 37 38 42 42 45 51 52 47 48 50 46 44 42 41
28 13 12 13 21 9 10 10 9 10 8 6 5 6 5 10 11 4 7 13 26 23 28 22 20 21 25 29 28 27 30 34 31 27 27 36 38 35 33 33 32 30 32 38 43 49 50 51 51 47 44 42 42 42
9 13 11 9 11 7 9 6 6 6 7 8 6 6 5 10 5 6 7 8 27 33 30 28 24 21 22 21 22 20 26 28 28 27 20 28 31 31 28 29 30 30 30 37 44 47 51 52 49 45 43 42 43 41
8 10 10 7 6 8 9 9 11 12 6 8 8 6 6 4 6 12 7 14 27 33 33 30 24 18 11 12 14 14 19 21 23 23 22 24 27 30 32 34 36 34 31 32 37 43 46 48 47 46 48 50 46 42
8 6 4 6 3 3 1 0 2 4 10 11 9 10 8 8 12 8 12 20 25 30 26 21 19 8 10 15 13 14 16 17 18 20 21 19 20 22 24 28 31 31 30 26 29 33 38 41 40 42 45 46 48 47
7 5 4 3 8 11 5 5 8 11 7 13 17 11 11 14 8 3 7 9 30 28 29 27 26 24 26 29 15 11 13 13 16 17 17 16 14 17 19 23 26 26 27 26 23 25 29 27 29 32 35 39 41 43
8 15 11 8 9 11 12 9 5 7 9 21 6 8 8 11 5 2 2 7 14 22 31 32 31 35 43 34 20 13 11 9 8 10 14 16 17 14 18 19 19 19 18 19 22 23 23 22 22 24 27 30 32 33
6 15 6 8 6 6 3 7 8 10 14 21 16 20 26 34 41 55 62 59 58 58 55 54 56 57 42 27 18 14 10 6 5 4 4 7 12 13 12 12 13 13 15 17 19 22 24 23 22 22 23 26 29 32
19 11 8 10 8 8 14 24 32 33 27 18 29 34 34 31 23 14 27 35 27 17 11 24 33 34 27 23 17 13 12 8 5 2 2 4 6 8 9 9 9 10 11 12 15 19 21 21 22 22 23 27 29 31
11 6 7 7 7 16 25 14 13 8 7 6 7 9 12 11 11 20 37 37 23 16 9 7 15 16 23 22 15 9 8 7 5 4 3 3 5 6 7 8 8 7 7 7 10 13 15 17 17 19 20 22 24 26
9 9 10 11 11 8 16 24 6 7 7 7 5 10 8 6 10 20 33 43 33 11 7 4 12 15 16 15 9 5 5 6 7 5 4 3 5 5 6 7 7 7 6 5 6 8 10 12 11 12 15 16 17 19
Wind_Direction_850mb
341 339 337 338 337 332 329 328 327 328 327 327 326 325 325 326 327 326 312 312 283 271 247 234 237 229 200 209 150 238 351 286 360 157 223 284 204 249 198 258 253 263 291 232 232 227 240 346 18 38 45 92 28 358
340 338 337 339 339 337 333 330 328 329 330 328 325 322 322 322 324 324 316 315 290 243 241 234 249 240 246 253 250 228 220 197 273 65 219 101 332 305 204 275 353 257 309 4 45 324 55 41 102 100 80 111 57 348
339 336 336 338 337 335 333 330 331 332 334 327 325 325 320 320 324 328 324 327 310 202 196 231 240 244 239 245 248 242 250 239 238 254 250 233 243 184 216 249 243 283 127 112 352 119 148 135 122 100 7 329 319 321
338 335 336 337 336 335 334 330 328 333 332 332 333 333 326 324 326 328 340 352 30 71 121 279 250 245 264 249 245 238 247 251 265 278 268 257 250 209 201 221 190 191 136 217 218 145 99 91 106 343 325 310 302 312
337 336 334 335 335 334 334 332 332 332 333 335 336 332 328 329 328 324 312 351 16 283 199 325 275 294 262 268 244 244 250 258 267 249 223 242 219 229 312 34 256 29 184 175 230 26 344 95 320 309 321 322 328 327
336 336 334 334 335 334 334 332 331 328 330 332 333 332 332 336 334 346 320 302 354 7 19 343 310 341 323 294 267 268 252 254 243 290 306 201 164 231 188 202 99 90 74 27 15 320 299 285 271 296 319 316 315 318
334 335 335 333 333 334 334 332 330 328 329 330 335 336 341 352 359 32 39 318 319 320 318 344 347 6 358 2 282 250 242 249 247 247 253 218 216 196 88 207 52 2 346 320 320 334 180 180 269 302 305 308 308 309
329 333 333 331 331 333 334 329 331 331 328 335 338 333 334 345 350 331 338 353 0 98 25 50 308 358 7 339 327 339 296 246 222 253 268 186 347 75 235 55 19 345 334 196 331 324 291 292 300 299 302 307 308 309
325 328 332 331 330 332 330 331 334 333 331 336 338 334 328 335 349 332 338 328 4 65 92 74 90 278 344 348 308 312 337 341 328 103 239 141 304 212 171 359 353 357 354 311 320 322 316 310 310 308 309 310 307 307
320 325 330 331 329 329 326 333 335 333 340 342 345 346 10 337 329 331 337 352 35 30 51 83 340 283 341 330 306 345 356 251 311 259 312 81 260 128 95 46 18 354 340 328 323 326 320 314 314 312 310 309 308 306
321 325 329 330 329 323 326 334 335 333 345 347 337 326 326 339 351 22 42 39 349 21 11 1 11 315 2 20 288 347 291 319 8 270 124 312 289 222 112 21 359 344 331 321 308 304 302 300 302 303 303 301 300 301
320 318 326 327 324 318 327 330 333 333 334 323 306 305 321 341 18 72 313 336 52 217 336 334 325 306 312 324 16 320 240 34 244 331 61 286 259 157 348 339 334 330 324 316 311 304 303 299 299 299 299 300 301 300
311 312 318 325 330 333 323 323 327 329 327 315 300 285 358 349 30 91 296 308 337 230 360 348 320 321 306 299 296 16 25 232 318 42 231 235 237 288 331 325 320 320 317 311 310 306 304 301 300 298 298 298 299 297
305 309 311 327 322 331 328 317 323 326 311 270 270 310 106 309 246 181 189 194 184 232 331 334 287 346 323 352 283 44 250 45 5 350 239 236 223 311 316 318 314 315 316 314 312 311 307 306 307 307 306 305 302 298
298 302 312 315 325 331 323 321 320 305 243 233 171 238 215 219 176 171 201 214 220 271 326 309 321 315 310 349 55 346 351 265 209 231 227 239 312 316 314 314 314 314 314 311 312 307 303 305 307 308 308 304 303 302
293 296 307 311 323 324 322 312 310 240 225 209 193 107 162 83 250 203 210 218 216 236 275 110 98 42 278 159 47 226 132 232 251 220 296 316 317 316 317 318 315 315 315 313 313 307 302 300 300 305 306 305 306 304
287 292 304 313 319 325 314 303 252 220 212 205 215 204 180 169 170 166 178 181 183 204 199 120 119 222 91 354 270 199 217 229 240 309 320 320 321 324 325 321 319 321 319 317 311 310 310 309 306 305 307 315 313 310
283 295 301 313 320 321 304 228 232 229 214 197 179 188 191 182 170 176 183 181 181 184 171 218 128 135 208 199 251 240 247 290 309 318 320 326 328 327 327 325 324 323 321 321 318 316 315 316 315 314 314 315 313 313
284 288 295 310 319 314 268 237 227 242 204 184 182 174 183 190 199 190 187 182 183 183 207 181 122 214 231 214 227 268 301 311 314 317 318 324 329 331 330 329 328 328 326 325 324 322 320 321 320 321 321 321 311 312
284 287 293 301 314 285 257 244 228 232 192 179 172 169 178 185 168 191 201 191 173 169 166 212 222 220 216 245 275 303 310 314 316 318 320 327 330 332 334 333 333 332 330 332 332 334 333 331 333 329 324 321 314 314
281 282 287 299 294 237 255 236 229 216 174 179 173 168 160 169 188 182 200 197 203 212 230 231 238 256 265 273 290 300 306 308 309 307 311 316 326 329 334 339 337 335 335 338 336 337 339 335 334 335 330 327 328 326
275 283 286 288 240 229 246 222 207 173 178 153 171 188 156 178 186 181 180 197 238 231 209 226 249 260 263 279 288 295 304 305 304 309 315 317 323 333 338 341 339 338 340 342 341 341 342 343 341 340 341 338 338 333
277 281 266 224 212 218 232 192 183 185 164 188 177 190 171 195 177 182 233 231 256 243 229 239 250 260 275 281 288 299 301 299 307 314 319 320 330 336 337 343 343 340 343 354 351 351 350 353 356 355 350 352 353 355
265 231 231 214 208 194 181 182 187 156 151 166 202 231 184 176 171 178 248 246 246 231 210 214 225 243 264 278 290 301 295 297 306 322 326 325 334 347 346 349 352 355 351 351 357 2 5 8 8 4 4 5 12 14
214 225 212 219 187 138 190 178 186 193 214 159 189 225 175 159 205 229 243 260 241 226 210 209 219 238 260 282 290 289 286 296 308 327 333 330 334 343 356 8 13 2 356 2 7 8 14 18 13 14 16 17 20 23
225 210 188 215 176 196 184 183 201 204 168 153 196 126 158 152 218 236 228 220 210 198 201 206 203 203 239 286 294 286 286 299 314 326 328 332 335 344 354 360 7 17 12 8 7 11 16 21 17 20 28 31 31 35
252 293 264 242 205 195 198 306 175 227 183 184 165 165 173 219 234 241 236 212 198 201 200 207 223 243 323 333 311 295 301 310 317 323 322 320 331 340 351 360 4 7 13 13 14 14 18 20 23 30 37 40 40 41
274 283 262 256 231 223 258 216 210 208 183 165 138 188 204 210 234 200 189 207 206 207 207 216 227 253 293 312 308 277 290 311 317 322 322 322 326 338 352 3 4 4 7 11 17 21 25 22 28 34 40 46 50 52
342 337 308 263 247 235 231 228 232 209 194 179 208 224 239 237 231 90 329 277 262 247 239 237 246 274 286 289 276 244 262 294 316 328 331 326 330 341 353 0 3 5 11 18 25 29 32 32 37 41 44 49 55 61
316 336 286 269 262 268 343 241 277 267 241 234 267 286 283 283 294 297 295 287 277 266 260 259 263 265 264 257 239 226 238 251 293 334 14 350 339 337 340 346 356 11 21 29 36 44 45 44 45 52 60 66 69 72
317 316 282 250 269 271 298 303 292 283 273 268 263 261 275 299 316 349 358 355 357 353 283 248 242 238 214 183 180 207 227 224 208 235 27 30 13 360 352 350 357 8 24 42 49 52 53 55 60 63 69 75 78 79
305 296 308 292 282 302 320 335 311 313 312 299 276 296 319 331 303 350 6 12 17 40 68 127 143 154 154 161 161 179 229 240 247 274 307 35 47 36 25 15 4 7 15 27 57 66 65 62 64 73 76 79 83 87
279 285 280 281 294 313 338 338 294 288 257 274 330 352 347 301 271 360 1 6 12 23 36 110 136 139 148 154 174 200 242 237 234 240 275 312 352 13 24 33 24 9 12 14 44 67 78 83 81 83 88 93 95 95